Date String (YYYY-MM-DD hh:mm:ss) UTC,Instrument flags,Ambient pressure (hPa),Sample flow (lpm),Bypass flow (lpm),Sample temperature (°C),Ambient temperature (°C),ASC tube jacket temperature (°C),LED temperature (°C),Box temperature (°C),Sample RH (%),Span deviation,Mass concentration (μg/m³),Mass concentration (μg/m³),Mass concentration (μg/m³)
DateTimeUTC,F1_M11,P_M11,Q1_M11,Q2_M11,T1_M11,T2_M11,T3_M11,T4_M11,T5_M11,U1_M11,ZSPAN_M11,X0_M11,X2_M11,X1_M11
2022-10-24 14:00:00,,0820.3,5.00,0.00,22.5,21.2,00.0,31.3,24.5,12.4,0000.0,0004.95,0002.96,0002.56
2022-10-24 14:01:00,,0820.3,4.98,0.00,22.5,21.1,00.0,31.3,24.5,12.1,0000.0,0005.05,0002.91,0002.53
2022-10-24 14:02:00,,0820.2,5.01,0.00,22.5,21.1,00.0,31.3,24.5,10.2,0000.0,0004.70,0002.79,0002.47
2022-10-24 14:03:00,,0820.3,4.99,0.00,22.5,21.1,00.0,31.3,24.5,09.0,0000.0,0004.56,0002.72,0002.40
2022-10-24 14:04:00,,0820.3,5.00,0.00,22.5,21.1,00.0,31.3,24.5,09.0,0000.0,0004.37,0002.61,0002.33
2022-10-24 14:05:00,,0820.3,5.00,0.00,22.5,21.1,00.0,31.3,24.5,09.7,0000.0,0004.26,0002.53,0002.26
2022-10-24 14:06:00,,0820.4,5.00,0.00,22.5,21.1,00.0,31.3,24.4,10.2,0000.0,0004.15,0002.48,0002.22
2022-10-24 14:07:00,,0820.4,5.00,0.00,22.5,21.1,00.0,31.3,24.5,10.1,0000.0,0004.14,0002.49,0002.20
2022-10-24 14:08:00,,0820.3,5.00,0.00,22.5,21.1,00.0,31.3,24.5,10.2,0000.0,0004.22,0002.46,0002.17
2022-10-24 14:09:00,,0820.2,4.98,0.00,22.5,21.0,00.0,31.3,22.8,10.1,0000.0,0004.73,0002.44,0002.14
2022-10-24 14:10:00,,0820.2,5.01,0.00,22.5,21.1,00.0,31.3,24.5,09.3,0000.0,0004.48,0002.39,0002.13
2022-10-24 14:11:00,,0820.2,5.01,0.00,22.5,21.1,00.0,31.3,24.5,09.5,0000.0,0004.37,0002.32,0002.10
2022-10-24 14:12:00,,0820.2,4.98,0.00,22.5,21.1,00.0,31.3,24.5,08.6,0000.0,0003.85,0002.29,0002.07
2022-10-24 14:13:00,,0820.2,5.00,0.00,22.5,21.1,00.0,31.3,24.5,08.4,0000.0,0003.76,0002.29,0002.07
2022-10-24 14:14:00,,0820.2,5.02,0.00,22.5,21.1,00.0,31.3,24.5,08.2,0000.0,0003.73,0002.29,0002.08
2022-10-24 14:15:00,,0820.2,4.97,0.00,22.5,21.1,00.0,31.3,24.5,08.3,0000.0,0003.69,0002.27,0002.08
2022-10-24 14:16:00,,0820.2,5.02,0.00,22.5,21.1,00.0,31.3,24.5,08.1,0000.0,0003.98,0002.29,0002.08
2022-10-24 14:17:00,,0820.2,5.00,0.00,22.5,21.0,00.0,31.3,24.4,08.9,0000.0,0005.27,0002.32,0002.09
2022-10-24 14:18:00,,0820.3,4.99,0.00,22.5,20.9,00.0,31.3,24.4,09.1,0000.0,0005.20,0002.28,0002.09
2022-10-24 14:19:00,,0820.3,5.01,0.00,22.5,21.0,00.0,31.3,24.4,08.3,0000.0,0005.10,0002.26,0002.07
2022-10-24 14:20:00,,0820.4,5.01,0.00,22.5,21.0,00.0,31.3,24.4,10.5,0000.0,0004.47,0002.29,0002.08
2022-10-24 14:21:00,,0820.5,4.98,0.00,22.5,21.0,00.0,31.3,24.4,12.2,0000.0,0004.73,0002.38,0002.12
2022-10-24 14:22:00,,0820.6,5.02,0.00,22.5,21.0,00.0,31.3,24.4,12.0,0000.0,0004.88,0002.44,0002.14
2022-10-24 14:23:00,,0820.6,4.99,0.00,22.5,21.1,00.0,31.3,24.4,13.6,0000.0,0004.94,0002.51,0002.18
2022-10-24 14:24:00,,0820.6,5.00,0.00,22.5,21.1,00.0,31.3,24.5,13.4,0000.0,0005.02,0002.56,0002.21
2022-10-24 14:25:00,,0820.6,4.99,0.00,22.5,21.1,00.0,31.3,24.4,13.1,0000.0,0005.18,0002.65,0002.25
2022-10-24 14:26:00,,0820.6,5.01,0.00,22.5,21.1,00.0,31.3,24.4,13.6,0000.0,0005.30,0002.74,0002.30
2022-10-24 14:27:00,,0820.6,4.98,0.00,22.5,21.1,00.0,31.3,24.5,13.6,0000.0,0006.51,0002.81,0002.36
2022-10-24 14:28:00,,0820.6,5.01,0.00,22.5,21.1,00.0,31.3,24.5,12.4,0000.0,0005.91,0002.86,0002.40
2022-10-24 14:29:00,,0820.6,5.00,0.00,22.5,21.1,00.0,31.3,24.5,13.2,0000.0,0005.79,0002.91,0002.44
2022-10-24 14:30:00,,0820.6,5.00,0.00,22.5,21.1,00.0,31.3,24.4,10.9,0000.0,0005.78,0002.92,0002.48
2022-10-24 14:31:00,,0820.6,5.00,0.00,22.5,21.1,00.0,31.3,24.4,10.8,0000.0,0005.75,0002.91,0002.49
2022-10-24 14:32:00,,0820.6,5.01,0.00,22.5,21.1,00.0,31.3,24.4,11.9,0000.0,0005.52,0002.85,0002.49
2022-10-24 14:33:00,,0820.6,5.01,0.00,22.5,21.1,00.0,31.3,24.4,12.3,0000.0,0005.40,0002.86,0002.52
2022-10-24 14:34:00,,0820.6,4.98,0.00,22.5,21.0,00.0,31.3,24.4,10.3,0000.0,0006.36,0002.88,0002.51
2022-10-24 14:35:00,,0820.6,5.00,0.00,22.5,21.0,00.0,31.3,24.4,09.0,0000.0,0007.56,0002.84,0002.49
2022-10-24 14:36:00,,0820.6,5.01,0.00,22.4,21.0,00.0,31.3,24.4,09.3,0000.0,0007.89,0002.82,0002.47
2022-10-24 14:37:00,,0820.6,5.01,0.00,22.4,21.0,00.0,31.3,24.3,08.5,0000.0,0007.86,0002.77,0002.45
2022-10-24 14:38:00,,0820.6,5.00,0.00,22.4,20.9,00.0,31.3,24.3,08.3,0000.0,0006.98,0002.72,0002.43
2022-10-24 14:39:00,,0820.6,5.00,0.00,22.4,20.9,00.0,31.3,24.2,08.2,0000.0,0006.68,0002.69,0002.41
2022-10-24 14:40:00,,0820.6,5.00,0.00,22.4,20.8,00.0,31.3,24.2,08.3,0000.0,0006.65,0002.66,0002.39
2022-10-24 14:41:00,,0820.6,4.99,0.00,22.4,20.8,00.0,31.3,24.1,08.2,0000.0,0006.69,0002.66,0002.37
2022-10-24 14:42:00,,0820.6,4.98,0.00,22.4,20.8,00.0,31.3,24.1,08.0,0000.0,0006.83,0002.69,0002.37
2022-10-24 14:43:00,,0820.6,5.02,0.00,22.4,20.8,00.0,31.3,24.1,07.9,0000.0,0006.83,0002.67,0002.35
2022-10-24 14:44:00,,0820.6,5.00,0.00,22.3,20.8,00.0,31.3,24.2,08.0,0000.0,0006.75,0002.63,0002.33
2022-10-24 14:45:00,,0820.6,5.00,0.00,22.3,20.7,00.0,31.3,24.1,07.9,0000.0,0005.63,0002.57,0002.31
2022-10-24 14:46:00,,0820.6,5.00,0.00,22.3,20.7,00.0,31.3,24.0,07.9,0000.0,0004.40,0002.58,0002.32
2022-10-24 14:47:00,,0820.6,5.00,0.00,22.3,20.7,00.0,31.3,24.0,07.9,0000.0,0003.55,0002.54,0002.33
2022-10-24 14:48:00,,0820.7,4.98,0.00,22.3,20.6,00.0,31.2,24.0,07.8,0000.0,0003.58,0002.55,0002.34
2022-10-24 14:49:00,,0820.7,5.00,0.00,22.3,20.6,00.0,31.2,24.0,07.8,0000.0,0003.38,0002.55,0002.34
2022-10-24 14:50:00,,0820.7,5.00,0.00,22.3,20.6,00.0,31.2,24.0,08.0,0000.0,0003.21,0002.53,0002.33
2022-10-24 14:51:00,,0820.7,5.02,0.00,22.2,20.6,00.0,31.2,24.0,07.9,0000.0,0003.18,0002.52,0002.33
2022-10-24 14:52:00,,0820.6,5.00,0.00,22.2,20.6,00.0,31.2,23.9,07.9,0000.0,0003.18,0002.51,0002.33
2022-10-24 14:53:00,,0820.7,4.98,0.00,22.2,20.6,00.0,31.2,24.0,08.0,0000.0,0003.11,0002.49,0002.35
2022-10-24 14:54:00,,0820.9,5.02,0.00,22.2,20.6,00.0,31.2,23.9,09.8,0000.0,0003.07,0002.49,0002.36
2022-10-24 14:55:00,,0820.8,5.00,0.00,22.2,20.6,00.0,31.2,24.0,11.8,0000.0,0003.86,0002.54,0002.38
2022-10-24 14:56:00,,0820.9,4.98,0.00,22.2,20.7,00.0,31.2,24.0,12.7,0000.0,0005.06,0002.63,0002.40
2022-10-24 14:57:00,,0820.9,5.01,0.00,22.2,20.7,00.0,31.2,24.1,13.5,0000.0,0005.94,0002.68,0002.44
2022-10-24 14:58:00,,0820.9,5.01,0.00,22.2,20.8,00.0,31.2,24.1,11.7,0000.0,0007.37,0002.73,0002.46
2022-10-24 14:59:00,,0820.9,5.00,0.00,22.3,20.9,00.0,31.1,24.2,13.8,0000.0,0007.70,0002.79,0002.49
